Regional Weather Roundup
Issued by NWS

Home | Current Version | Previous Version | Text Only | Print | Product List | Glossary Off
Versions: 1 2 3 4 5 6 7 8 9 10 11 12 13 14 15 16 17 18 19 20 21 22 23 24 25 26 27 28 29 30 31 32 33 34 35 36 37 38 39 40 41 42 43 44 45 46 47 48 49 50

000
ASUS43 KBIS 011510
RWRND

NORTH DAKOTA REGIONAL WEATHER ROUNDUP
NATIONAL WEATHER SERVICE BISMARCK ND
1000 AM CDT WED JUL 01 2015

NOTE: "FAIR" INDICATES FEW OR NO CLOUDS BELOW 12,000 FEET WITH NO
SIGNIFICANT WEATHER AND/OR OBSTRUCTIONS TO VISIBILITY.


NDZ001>003-009>011-017-011600-
NORTHWEST NORTH DAKOTA

CITY           SKY/WX    TMP DP  RH WIND       PRES   REMARKS
WILLISTON      CLOUDY    66  59  78 NE5       29.99R HAZE
MINOT          CLOUDY    64  62  93 CALM      29.95F FOG
MINOT AFB      CLOUDY    65  65 100 W1        29.94F FOG
$$

NDZ018>021-031>035-040>046-011600-
SOUTHWEST NORTH DAKOTA

CITY           SKY/WX    TMP DP  RH WIND       PRES   REMARKS
BISMARCK       CLOUDY    68  64  87 E7        29.95F
DICKINSON      CLOUDY    62  59  90 NE8       29.97S FOG
GARRISON         N/A     67  62  84 N3        29.96F
HETTINGER ARPT CLOUDY    62  60  93 N9        29.99R FOG
$$

NDZ004>008-012>016-024-026-027-054-011600-
NORTHEAST NORTH DAKOTA

CITY           SKY/WX    TMP DP  RH WIND       PRES   REMARKS
GRAND FORKS    SUNNY     69  60  73 CALM      29.94S
GRND FRKS AFB  SUNNY     69  59  71 CALM      29.95S
DEVILS LAKE      N/A     68  57  68 CALM      29.95F VSB 3/4
$$

NDZ022-023-025-028>030-036>039-047>053-011600-
SOUTHEAST NORTH DAKOTA

CITY           SKY/WX    TMP DP  RH WIND       PRES   REMARKS
FARGO          SUNNY     70  62  76 S9        29.95S
JAMESTOWN      CLOUDY    68  60  75 SE8       29.95S
$$



USA.gov is the U.S. government's official web portal to all federal, state and local government web resources and services.